Location: Northcutt
(34.7304°N, 84.4305°W)
Time: 02:28:43
(UTC+00:00)

Transit 2A Rocket - Pass Details

Date: 07 October 2022
Orbit: 588 x 912 km, 66.7° (Epoch: 08 December)

Event Time Altitude Azimuth Distance (km) Brightness Sun altitude
Rises 19:38:27 0° 330° (NNW) 3,078 8.0 38.8°
Reaches altitude 10° 19:40:42 10° 327° (NNW) 2,205 7.4 38.5°
Maximum altitude 19:45:42 67° 246° (WSW) 831 6.4 37.8°
Drops below altitude 10° 19:51:11 10° 164° (SSE) 2,409 8.0 36.9°
Sets 19:53:45 0° 162° (SSE) 3,385 8.6 36.6°
